Location: Gull Harbor
(47.1000°N, 122.9000°W)
Time: 12:56:30
(UTC-07:00)

BlueWalker 3 - Pass Details

Date: 01 February 2023
Orbit: 497 x 514 km, 53.2° (Epoch: 01 April)

Event Time Altitude Azimuth Distance (km) Brightness Sun altitude
Rises 20:32:20 0° 296° (WNW) 2,614 6.6 -33.8°
Reaches altitude 10° 20:34:37 10° 303° (WNW) 1,732 5.4 -34.1°
Enters shadow 20:34:58 12° 305° (NW) 1,597 5.1 -34.2°
